[[{"header":{"parameterUnit":"m.s-1","parameterCategory":1,"la1":30.2991,"la2":30.254,"lo1":-89.0895,"lo2":-89.0444,"dy":0.0017,"dx":0.0017,"nx":28,"ny":28,"refTime":"2025-05-25T09:00:00:Z","depth":0,"parameterNumber":2,"parameterNumberName":"U-component_of_WINDS"},"data":[0,0,0,0,0,0,0,0,0,0,0,0,0,0,0,0,0,0,0,0,0,0,0,0,0,0,0,0,0,0,0,0,0,0,0,0,0,0,0,0,0,0,0,0,0,0,0,0,0,0,0,0,0,0,0,0,0,0,-0.7243,-0.7242,0,-0.7158,-0.7157,-0.7156,-0.7112,-0.7112,-0.7112,-0.7112,-0.7023,-0.7021,-0.7018,0,0,0,0,0,0,0,0,0,0,0,0,0,-0.7367,-0.7365,-0.7243,-0.7242,-0.7241,-0.7158,-0.7157,-0.7156,-0.7112,-0.7112,-0.7112,-0.7112,-0.7024,-0.7021,-0.7018,0,0,0,0,0,0,0,0,0,0,0,0,0,-0.7301,-0.7364,-0.7243,-0.721,-0.7206,-0.7158,-0.7157,-0.7155,-0.7112,-0.7112,-0.7112,-0.7112,-0.7025,-0.7021,-0.7018,-0.6997,0,0,-0.7007,-0.7005,0,0,0,0,0,0,0,0,-0.7305,-0.7296,-0.7216,-0.7212,-0.7207,-0.7146,-0.7168,-0.7102,-0.7112,-0.7148,-0.7112,-0.7112,-0.7064,-0.7057,-0.7041,-0.6993,-0.6989,-0.7007,-0.7005,-0.7003,-0.7002,0,0,0,0,0,0,0,-0.7309,-0.73,-0.7209,-0.7214,-0.7209,-0.7198,-0.7189,-0.7155,-0.7107,-0.7145,-0.7141,-0.7132,-0.7061,-0.7045,-0.7039,-0.6988,-0.7007,-0.7004,-0.7001,-0.7,-0.6918,-0.6918,0,0,0,0,0,0,-0.7319,-0.7304,-0.7212,-0.7207,-0.7257,-0.7196,-0.7185,-0.7166,-0.7107,-0.7098,-0.7132,-0.713,-0.7051,-0.7043,-0.7035,-0.7007,-0.7003,-0.7,-0.6998,-0.6918,-0.6918,-0.6918,0,0,0,0,0,0,-0.7322,-0.7312,-0.7216,-0.7254,-0.7241,-0.7194,-0.7172,-0.7164,-0.7147,-0.7098,-0.7089,-0.7124,-0.705,-0.704,-0.7007,-0.7003,-0.6998,-0.6995,-0.6918,-0.6918,-0.6918,-0.695,0,0,0,0,0,0,-0.7326,-0.7313,-0.7305,-0.7255,-0.7239,-0.7189,-0.7172,-0.7162,-0.7141,-0.7138,-0.7088,-0.7079,-0.7049,-0.7012,-0.7003,-0.6998,-0.6992,-0.6918,-0.6918,-0.6918,-0.6949,-0.6951,-0.6953,0,0,0,0,0,-0.7331,-0.7317,-0.7305,-0.7294,-0.7228,-0.7189,-0.718,-0.7147,-0.7141,-0.7132,-0.7101,-0.7081,-0.7005,-0.7009,-0.6999,-0.6993,-0.6918,-0.6918,-0.6918,-0.6948,-0.6951,-0.6953,0,0,0,0,0,0,-0.7368,-0.731,-0.7296,-0.7265,-0.7233,-0.7182,-0.717,-0.7151,-0.7118,-0.7117,-0.7076,-0.7065,-0.7035,-0.7011,-0.7016,-0.6969,-0.696,-0.6957,-0.6987,-0.6988,-0.699,-0.6996,-0.6989,0,0,0,0,0,-0.7372,-0.7346,-0.7297,-0.7275,-0.7259,-0.7217,-0.7199,-0.7176,-0.714,-0.7126,-0.7092,-0.7057,-0.7026,-0.7006,-0.6974,-0.6946,-0.6934,-0.6936,-0.6938,-0.694,-0.6938,-0.6921,-0.6922,-0.6917,-0.6917,-0.6917,0,0,-0.7382,-0.7347,-0.7332,-0.7281,-0.7253,-0.7226,-0.7206,-0.7178,-0.7157,-0.7121,-0.7088,-0.7062,-0.7021,-0.699,-0.6975,-0.6968,-0.6937,-0.694,-0.6941,-0.6939,-0.6921,-0.6921,-0.6922,-0.6917,-0.6917,-0.6917,0,0,-0.7385,-0.7356,-0.7334,-0.7307,-0.7265,-0.7237,-0.7232,-0.7184,-0.7166,-0.7132,-0.7105,-0.7079,-0.7026,-0.6998,-0.6976,-0.6969,-0.6949,-0.696,-0.6969,-0.6953,-0.6954,-0.6954,-0.6951,-0.695,-0.6959,-0.6959,-0.6959,0,-0.7401,-0.736,-0.7326,-0.7299,-0.7277,-0.7245,-0.7222,-0.7197,-0.7147,-0.7132,-0.7126,-0.7059,-0.7029,-0.6991,-0.6989,-0.6973,-0.6966,-0.6965,-0.6956,-0.6956,-0.6956,-0.6953,-0.6952,-0.696,-0.696,-0.696,-0.696,0,-0.7382,-0.7354,-0.7342,-0.7294,-0.7271,-0.7247,-0.7209,-0.7189,-0.7169,-0.7142,-0.7108,-0.7071,-0.7031,-0.702,-0.7,-0.6979,-0.6977,-0.6964,-0.6954,-0.6958,-0.6955,-0.6953,-0.6962,-0.6962,-0.6961,-0.6961,0,0,-0.7405,-0.734,-0.7336,-0.7314,-0.7266,-0.7243,-0.7217,-0.7179,-0.7163,-0.713,-0.7107,-0.7063,-0.7051,-0.7027,-0.7003,-0.6989,-0.6985,-0.6978,-0.6976,-0.698,-0.696,-0.697,-0.6969,-0.6972,-0.6972,-0.6972,-0.6964,0,-0.7401,-0.7354,-0.7323,-0.7288,-0.7261,-0.723,-0.7208,-0.7175,-0.7149,-0.7123,-0.7094,-0.7063,-0.705,-0.7035,-0.702,-0.6989,-0.6981,-0.6989,-0.695,-0.6949,-0.6961,-0.6967,-0.6977,-0.6971,-0.6962,-0.6962,-0.6961,0,-0.739,-0.7358,-0.7321,-0.7275,-0.7263,-0.7243,-0.7206,-0.7181,-0.7143,-0.7125,-0.7099,-0.7075,-0.7046,-0.7039,-0.6998,-0.7005,-0.6987,-0.6969,-0.6968,-0.6963,-0.6955,-0.6961,-0.6968,-0.6967,-0.6959,-0.6959,-0.6959,0,-0.741,-0.7358,-0.7329,-0.7311,-0.7257,-0.7244,-0.7221,-0.7184,-0.7163,-0.713,-0.7116,-0.708,-0.706,-0.7033,-0.7,-0.6997,-0.6962,-0.6952,-0.6946,-0.6947,-0.694,-0.6941,-0.6944,-0.6929,-0.693,-0.693,-0.693,0,-0.7409,-0.7387,-0.7337,-0.7319,-0.7294,-0.7258,-0.7234,-0.7208,-0.7175,-0.7151,-0.7122,-0.71,-0.7058,-0.7031,-0.7004,-0.6975,-0.6966,-0.6951,-0.6944,-0.6953,-0.6955,-0.694,-0.6939,-0.6929,-0.6929,-0.6929,-0.6929,0,-0.7427,-0.7393,-0.7359,-0.7311,-0.7298,-0.7282,-0.724,-0.7222,-0.7195,-0.7165,-0.7156,-0.7113,-0.708,-0.7044,-0.6998,-0.6981,-0.6952,-0.6943,-0.6965,-0.6961,-0.6957,-0.6958,-0.695,-0.6947,-0.6936,-0.6936,-0.6936,0,-0.7428,-0.7411,-0.7361,-0.7343,-0.7321,-0.7293,-0.7271,-0.7235,-0.7214,-0.717,-0.7157,-0.7121,-0.7091,-0.7039,-0.7004,-0.6969,-0.6958,-0.6958,-0.6952,-0.6962,-0.6957,-0.6959,-0.6957,-0.6959,-0.696,-0.696,-0.696,0,-0.7433,-0.7417,-0.7388,-0.7353,-0.7328,-0.7298,-0.7267,-0.7254,-0.7212,-0.719,-0.7156,-0.7132,-0.7086,-0.7051,-0.7012,-0.6988,-0.6967,-0.6962,-0.6959,-0.6968,-0.6981,-0.6973,-0.6969,-0.6962,-0.6962,-0.6962,-0.6962,-0.6962,-0.7443,-0.7426,-0.7388,-0.7356,-0.7329,-0.7301,-0.7281,-0.7252,-0.7223,-0.7183,-0.7163,-0.7129,-0.7092,-0.7037,-0.7014,-0.6986,-0.698,-0.6975,-0.6974,-0.6973,-0.6975,-0.6986,-0.6979,-0.6979,-0.6979,-0.6978,-0.6978,0,-0.7446,-0.7421,-0.7392,-0.735,-0.7324,-0.7308,-0.7273,-0.7253,-0.7223,-0.719,-0.7161,-0.7122,-0.7088,-0.7051,-0.7014,-0.6999,-0.6989,-0.6991,-0.6992,-0.6986,-0.6983,-0.6989,-0.7,-0.7,-0.7,-0.7,-0.7,-0.7,-0.7445,-0.7415,-0.7395,-0.7352,-0.7326,-0.7292,-0.7274,-0.7248,-0.7221,-0.7179,-0.7151,-0.7127,-0.7092,-0.7053,-0.7021,-0.7011,-0.6999,-0.7004,-0.6991,-0.6988,-0.6986,-0.6985,-0.699,-0.7001,-0.7001,-0.6996,-0.6996,-0.6996]},{"header":{"parameterUnit":"m.s-1","parameterCategory":1,"la1":30.2991,"la2":30.254,"lo1":-89.0895,"lo2":-89.0444,"dy":0.0017,"dx":0.0017,"nx":28,"ny":28,"refTime":"2025-05-25T09:00:00:Z","depth":0,"parameterNumber":3,"parameterNumberName":"V-component_of_WINDS"},"data":[0,0,0,0,0,0,0,0,0,0,0,0,0,0,0,0,0,0,0,0,0,0,0,0,0,0,0,0,0,0,0,0,0,0,0,0,0,0,0,0,0,0,0,0,0,0,0,0,0,0,0,0,0,0,0,0,0,0,3.8457,3.8456,0,3.8412,3.8412,3.8411,3.8417,3.8418,3.8419,3.842,3.8368,3.8366,3.8364,0,0,0,0,0,0,0,0,0,0,0,0,0,3.8542,3.854,3.8457,3.8456,3.8456,3.8412,3.8412,3.8411,3.8417,3.8418,3.8419,3.842,3.8368,3.8366,3.8363,0,0,0,0,0,0,0,0,0,0,0,0,0,3.8502,3.854,3.8457,3.8454,3.8453,3.8413,3.8412,3.8411,3.8417,3.8418,3.8419,3.842,3.8369,3.8366,3.8363,3.8321,0,0,3.8354,3.8352,0,0,0,0,0,0,0,0,3.8504,3.8499,3.8455,3.8454,3.8453,3.8422,3.8423,3.8381,3.8417,3.843,3.842,3.8421,3.8384,3.838,3.8369,3.8319,3.8317,3.8353,3.8351,3.835,3.8349,0,0,0,0,0,0,0,3.8507,3.8501,3.8439,3.8454,3.8453,3.8453,3.8448,3.8415,3.8401,3.8429,3.843,3.8425,3.8384,3.8372,3.8368,3.8316,3.8353,3.8351,3.8349,3.8347,3.8229,3.8228,0,0,0,0,0,0,3.8511,3.8503,3.844,3.8438,3.8482,3.845,3.8445,3.843,3.8402,3.8399,3.8424,3.8425,3.8377,3.8371,3.8366,3.8315,3.835,3.8347,3.8345,3.8231,3.8229,3.8228,0,0,0,0,0,0,3.8513,3.8506,3.8442,3.847,3.8462,3.8448,3.8431,3.8429,3.8417,3.8398,3.8395,3.8414,3.8377,3.837,3.8333,3.8314,3.8346,3.8343,3.8232,3.823,3.8228,3.8214,0,0,0,0,0,0,3.8516,3.8506,3.8491,3.847,3.8461,3.8411,3.843,3.8427,3.8412,3.8414,3.8388,3.8385,3.8378,3.8337,3.833,3.831,3.834,3.8234,3.8231,3.8229,3.8216,3.8211,3.8208,0,0,0,0,0,3.8519,3.8487,3.8491,3.8483,3.8442,3.841,3.8405,3.8399,3.8411,3.8395,3.8383,3.8386,3.8317,3.8334,3.8325,3.8304,3.8235,3.8232,3.8229,3.8217,3.8212,3.8208,0,0,0,0,0,0,3.8504,3.8484,3.8488,3.8449,3.8432,3.8411,3.8391,3.8394,3.8371,3.8373,3.8365,3.8359,3.8321,3.8309,3.8327,3.8262,3.8277,3.8273,3.8271,3.8266,3.8262,3.8266,3.8338,0,0,0,0,0,3.8497,3.8474,3.8458,3.8425,3.8417,3.8405,3.8391,3.8389,3.8369,3.8361,3.8346,3.8326,3.83,3.8282,3.8257,3.8214,3.8208,3.8196,3.8192,3.8188,3.8184,3.8161,3.8155,3.8218,3.8218,3.8218,0,0,3.8481,3.8467,3.8453,3.8422,3.8408,3.8384,3.8399,3.8372,3.8353,3.8356,3.8321,3.8309,3.8285,3.8245,3.8227,3.8234,3.8166,3.8185,3.8183,3.818,3.8157,3.8151,3.8146,3.8216,3.8217,3.8217,0,0,3.8439,3.8427,3.8399,3.8385,3.8365,3.8358,3.8351,3.8331,3.8324,3.8289,3.8291,3.8268,3.8223,3.8207,3.8192,3.8146,3.8148,3.8138,3.8117,3.8094,3.8089,3.8084,3.8068,3.8062,3.8134,3.8134,3.8134,0,3.842,3.8386,3.8383,3.8357,3.8343,3.8348,3.8318,3.8305,3.8276,3.8266,3.8275,3.822,3.8204,3.816,3.8149,3.8138,3.8129,3.814,3.809,3.8086,3.8081,3.8065,3.8059,3.8133,3.8133,3.8133,3.8133,0,3.8364,3.834,3.8319,3.8295,3.8278,3.825,3.8243,3.8226,3.8226,3.8217,3.8181,3.8163,3.8135,3.8124,3.8122,3.808,3.8085,3.8092,3.8107,3.8074,3.8059,3.8053,3.8131,3.8132,3.8132,3.8132,0,0,3.831,3.8287,3.8279,3.8268,3.8247,3.8227,3.8199,3.8174,3.816,3.8141,3.8116,3.8079,3.8086,3.807,3.8066,3.8047,3.8011,3.8056,3.8055,3.8048,3.7964,3.7958,3.7951,3.8013,3.8012,3.8011,3.7965,0,3.8266,3.8219,3.8217,3.8174,3.8151,3.8156,3.8132,3.8115,3.8107,3.8085,3.8075,3.8049,3.8061,3.8051,3.8032,3.802,3.7994,3.8023,3.7989,3.7988,3.7994,3.7943,3.7937,3.7895,3.796,3.7958,3.7958,0,3.8208,3.819,3.8145,3.8128,3.8118,3.8097,3.8074,3.8054,3.8035,3.803,3.8013,3.8013,3.7983,3.8,3.7959,3.7979,3.7965,3.7957,3.7955,3.7951,3.797,3.7937,3.7882,3.7875,3.7948,3.7949,3.795,0,3.8173,3.8137,3.8106,3.8096,3.8076,3.8061,3.8051,3.8034,3.8019,3.7998,3.7989,3.7964,3.795,3.7931,3.7923,3.7937,3.7882,3.7898,3.7876,3.7876,3.7863,3.7864,3.7804,3.7855,3.7855,3.7855,3.7856,0,3.8124,3.8096,3.809,3.807,3.8039,3.8037,3.8005,3.7997,3.7981,3.7959,3.7961,3.794,3.7932,3.7909,3.7903,3.7869,3.7863,3.7858,3.7856,3.7857,3.7858,3.7847,3.785,3.7854,3.7854,3.7854,3.7855,0,3.8079,3.8074,3.804,3.8025,3.802,3.7998,3.7984,3.7964,3.7958,3.793,3.7923,3.7911,3.7884,3.7876,3.7842,3.7838,3.7799,3.78,3.7806,3.7806,3.7784,3.7786,3.7715,3.7705,3.7763,3.7762,3.7762,0,3.8047,3.8026,3.801,3.7996,3.7987,3.7965,3.7951,3.7947,3.7932,3.791,3.7893,3.7868,3.7847,3.7804,3.7791,3.7766,3.7766,3.7743,3.7762,3.7764,3.7766,3.7767,3.7765,3.7739,3.7739,3.7738,3.7738,0,3.7992,3.7991,3.7972,3.7952,3.7935,3.7919,3.7902,3.7891,3.7885,3.7867,3.7842,3.7826,3.7794,3.7768,3.7743,3.7731,3.7733,3.7732,3.7726,3.7726,3.773,3.7728,3.7796,3.7733,3.7734,3.7734,3.7734,3.7734,3.7952,3.7935,3.792,3.7899,3.7887,3.7872,3.7854,3.7846,3.7825,3.78,3.7799,3.7771,3.7753,3.772,3.7707,3.7684,3.7691,3.7681,3.7678,3.7676,3.7674,3.7735,3.7679,3.768,3.768,3.768,3.768,0,3.7897,3.7889,3.7869,3.7848,3.7831,3.7837,3.782,3.7805,3.7781,3.7765,3.7745,3.7716,3.7691,3.7678,3.7653,3.7637,3.7637,3.763,3.7631,3.7628,3.767,3.7678,3.7631,3.7631,3.7631,3.7631,3.7631,3.7631,3.7866,3.7837,3.7834,3.7798,3.779,3.7764,3.7754,3.774,3.7728,3.7695,3.7676,3.7668,3.7653,3.7627,3.7605,3.7601,3.7592,3.7584,3.7581,3.762,3.7625,3.763,3.7638,3.7582,3.7582,3.7541,3.7541,3.7541]}]]